Time,TemperatureF,DewpointF,PressureIn,WindDirection,WindDirectionDegrees,WindSpeedMPH,WindSpeedGustMPH,Humidity,HourlyPrecipIn,Conditions,Clouds,dailyrainin,SoftwareType,DateUTC
2013-03-16 00:00:00,53.6,44.4,30.05,SSW,210,20.7,20.7,71,0.00,CLR,,0.00,WeatherDisplay:10.37,2013-03-16 04:00:00,
2013-03-16 00:05:00,55.4,46.2,30.04,SSW,210,19.6,19.6,71,0.00,CLR,,0.00,WeatherDisplay:10.37,2013-03-16 04:05:00,
2013-03-16 00:10:00,55.4,46.2,30.04,SSW,210,19.6,19.6,71,0.00,CLR,,0.00,WeatherDisplay:10.37,2013-03-16 04:10:00,
2013-03-16 00:15:00,55.4,46.2,30.04,SSW,210,19.6,19.6,71,0.00,CLR,,0.00,WeatherDisplay:10.37,2013-03-16 04:15:00,
2013-03-16 00:20:00,55.4,46.2,30.04,SSW,210,19.6,19.6,71,0.00,CLR,,0.00,WeatherDisplay:10.37,2013-03-16 04:20:00,
2013-03-16 00:25:00,53.6,46.2,30.04,SW,220,18.4,18.4,76,0.00,CLR,,0.00,WeatherDisplay:10.37,2013-03-16 04:25:00,
2013-03-16 00:30:00,53.6,46.2,30.04,SW,220,18.4,18.4,76,0.00,CLR,,0.00,WeatherDisplay:10.37,2013-03-16 04:30:00,
2013-03-16 00:35:00,53.6,46.2,30.04,SW,220,18.4,18.4,76,0.00,CLR,,0.00,WeatherDisplay:10.37,2013-03-16 04:35:00,
2013-03-16 00:40:00,53.6,46.2,30.04,SW,220,18.4,18.4,76,0.00,CLR,,0.00,WeatherDisplay:10.37,2013-03-16 04:40:00,
2013-03-16 00:45:00,53.6,46.2,30.03,SSW,210,11.5,11.5,76,0.00,CLR,,0.00,WeatherDisplay:10.37,2013-03-16 04:45:00,
2013-03-16 00:50:00,53.6,46.2,30.03,SSW,210,11.5,11.5,76,0.00,CLR,,0.00,WeatherDisplay:10.37,2013-03-16 04:50:00,
2013-03-16 00:55:00,53.6,46.2,30.03,SSW,210,11.5,11.5,76,0.00,CLR,,0.00,WeatherDisplay:10.37,2013-03-16 04:55:00,
2013-03-16 01:00:00,53.6,46.2,30.03,SSW,210,11.5,11.5,76,0.00,CLR,,0.00,WeatherDisplay:10.37,2013-03-16 05:00:00,
2013-03-16 01:05:00,53.6,46.2,30.02,SSW,210,18.4,18.4,76,0.00,CLR,,0.00,WeatherDisplay:10.37,2013-03-16 05:05:00,
2013-03-16 01:10:00,53.6,46.2,30.02,SSW,210,18.4,18.4,76,0.00,CLR,,0.00,WeatherDisplay:10.37,2013-03-16 05:10:00,
2013-03-16 01:15:00,53.6,46.2,30.02,SSW,210,18.4,18.4,76,0.00,CLR,,0.00,WeatherDisplay:10.37,2013-03-16 05:15:00,
2013-03-16 01:20:00,53.6,46.2,30.02,SSW,210,18.4,18.4,76,0.00,CLR,,0.00,WeatherDisplay:10.37,2013-03-16 05:20:00,
2013-03-16 01:25:00,53.6,46.2,30.02,SSW,210,18.4,18.4,76,0.00,CLR,,0.00,WeatherDisplay:10.37,2013-03-16 05:25:00,
2013-03-16 01:30:00,53.6,46.2,30.02,SSW,210,18.4,18.4,76,0.00,CLR,,0.00,WeatherDisplay:10.37,2013-03-16 05:30:00,
2013-03-16 01:35:00,53.6,46.2,30.02,SSW,210,18.4,18.4,76,0.00,CLR,,0.00,WeatherDisplay:10.37,2013-03-16 05:35:00,
2013-03-16 01:40:00,53.6,46.2,30.02,SSW,210,18.4,18.4,76,0.00,CLR,,0.00,WeatherDisplay:10.37,2013-03-16 05:40:00,
2013-03-16 01:45:00,53.6,46.2,30.02,SSW,210,18.4,18.4,76,0.00,CLR,,0.00,WeatherDisplay:10.37,2013-03-16 05:45:00,
2013-03-16 01:50:00,53.6,46.2,30.02,SSW,210,18.4,18.4,76,0.00,CLR,,0.00,WeatherDisplay:10.37,2013-03-16 05:50:00,
2013-03-16 01:55:00,53.6,46.2,30.02,SSW,210,18.4,18.4,76,0.00,CLR,,0.00,WeatherDisplay:10.37,2013-03-16 05:55:00,
2013-03-16 02:00:00,53.6,46.2,30.02,SSW,210,18.4,18.4,76,0.00,CLR,,0.00,WeatherDisplay:10.37,2013-03-16 06:00:00,
2013-03-16 02:05:00,55.4,44.2,30.01,SW,220,10.4,10.4,66,0.00,CLR,,0.00,WeatherDisplay:10.37,2013-03-16 06:05:00,
2013-03-16 02:10:00,55.4,44.2,30.01,SW,220,10.4,10.4,66,0.00,CLR,,0.00,WeatherDisplay:10.37,2013-03-16 06:10:00,
2013-03-16 02:15:00,55.4,44.2,30.01,SW,220,10.4,10.4,66,0.00,CLR,,0.00,WeatherDisplay:10.37,2013-03-16 06:15:00,
2013-03-16 02:20:00,55.4,44.2,30.01,SW,220,10.4,10.4,66,0.00,CLR,,0.00,WeatherDisplay:10.37,2013-03-16 06:20:00,
2013-03-16 02:25:00,55.4,44.2,30.01,SW,220,11.5,11.5,66,0.00,CLR,,0.00,WeatherDisplay:10.37,2013-03-16 06:25:00,
2013-03-16 02:30:00,55.4,44.2,30.01,SW,220,11.5,11.5,66,0.00,CLR,,0.00,WeatherDisplay:10.37,2013-03-16 06:30:00,
2013-03-16 02:35:00,55.4,44.2,30.01,SW,220,11.5,11.5,66,0.00,CLR,,0.00,WeatherDisplay:10.37,2013-03-16 06:35:00,
2013-03-16 02:40:00,55.4,44.2,30.01,SW,220,11.5,11.5,66,0.00,CLR,,0.00,WeatherDisplay:10.37,2013-03-16 06:40:00,
2013-03-16 02:45:00,55.4,46.2,30.01,SW,220,10.4,10.4,71,0.00,CLR,,0.00,WeatherDisplay:10.37,2013-03-16 06:45:00,
2013-03-16 02:50:00,55.4,46.2,30.01,SW,220,10.4,10.4,71,0.00,CLR,,0.00,WeatherDisplay:10.37,2013-03-16 06:50:00,
2013-03-16 02:55:00,55.4,46.2,30.01,SW,220,10.4,10.4,71,0.00,CLR,,0.00,WeatherDisplay:10.37,2013-03-16 06:55:00,
2013-03-16 03:00:00,55.4,46.2,30.01,SW,220,10.4,10.4,71,0.00,CLR,,0.00,WeatherDisplay:10.37,2013-03-16 07:00:00,
2013-03-16 03:05:00,55.4,46.2,30.00,SW,220,10.4,10.4,71,0.00,CLR,,0.00,WeatherDisplay:10.37,2013-03-16 07:05:00,
2013-03-16 03:10:00,55.4,46.2,30.00,SW,220,10.4,10.4,71,0.00,CLR,,0.00,WeatherDisplay:10.37,2013-03-16 07:10:00,
2013-03-16 03:15:00,55.4,46.2,30.00,SW,220,10.4,10.4,71,0.00,CLR,,0.00,WeatherDisplay:10.37,2013-03-16 07:15:00,
2013-03-16 03:20:00,55.4,46.2,30.00,SW,220,10.4,10.4,71,0.00,CLR,,0.00,WeatherDisplay:10.37,2013-03-16 07:20:00,
2013-03-16 03:25:00,55.4,46.2,30.00,SW,220,19.6,19.6,71,0.00,CLR,,0.00,WeatherDisplay:10.37,2013-03-16 07:25:00,
2013-03-16 03:30:00,55.4,46.2,30.00,SW,220,19.6,19.6,71,0.00,CLR,,0.00,WeatherDisplay:10.37,2013-03-16 07:30:00,
2013-03-16 03:35:00,55.4,46.2,30.00,SW,220,19.6,19.6,71,0.00,CLR,,0.00,WeatherDisplay:10.37,2013-03-16 07:35:00,
2013-03-16 03:40:00,55.4,46.2,30.00,SW,220,19.6,19.6,71,0.00,CLR,,0.00,WeatherDisplay:10.37,2013-03-16 07:40:00,
2013-03-16 03:45:00,55.4,46.2,29.99,SW,230,19.6,19.6,71,0.00,CLR,,0.00,WeatherDisplay:10.37,2013-03-16 07:45:00,
2013-03-16 03:50:00,55.4,46.2,29.99,SW,230,19.6,19.6,71,0.00,CLR,,0.00,WeatherDisplay:10.37,2013-03-16 07:50:00,
2013-03-16 03:55:00,55.4,46.2,29.99,SW,230,19.6,19.6,71,0.00,CLR,,0.00,WeatherDisplay:10.37,2013-03-16 07:55:00,
2013-03-16 04:00:00,55.4,46.2,29.99,SW,230,19.6,19.6,71,0.00,CLR,,0.00,WeatherDisplay:10.37,2013-03-16 08:00:00,
2013-03-16 04:05:00,55.4,46.2,29.98,SW,230,19.6,19.6,71,0.00,CLR,,0.00,WeatherDisplay:10.37,2013-03-16 08:05:00,
2013-03-16 04:10:00,55.4,46.2,29.98,SW,230,19.6,19.6,71,0.00,CLR,,0.00,WeatherDisplay:10.37,2013-03-16 08:10:00,
2013-03-16 04:15:00,55.4,46.2,29.98,SW,230,19.6,19.6,71,0.00,CLR,,0.00,WeatherDisplay:10.37,2013-03-16 08:15:00,
2013-03-16 04:20:00,55.4,46.2,29.98,SW,230,19.6,19.6,71,0.00,CLR,,0.00,WeatherDisplay:10.37,2013-03-16 08:20:00,
2013-03-16 04:25:00,55.4,46.2,29.98,SW,230,13.8,13.8,71,0.00,CLR,,0.00,WeatherDisplay:10.37,2013-03-16 08:25:00,
2013-03-16 04:30:00,55.4,46.2,29.98,SW,230,13.8,13.8,71,0.00,CLR,,0.00,WeatherDisplay:10.37,2013-03-16 08:30:00,
2013-03-16 04:35:00,55.4,46.2,29.98,SW,230,13.8,13.8,71,0.00,CLR,,0.00,WeatherDisplay:10.37,2013-03-16 08:35:00,
2013-03-16 04:40:00,55.4,46.2,29.98,SW,230,13.8,13.8,71,0.00,CLR,,0.00,WeatherDisplay:10.37,2013-03-16 08:40:00,
2013-03-16 04:45:00,55.4,46.2,29.97,WSW,240,11.5,11.5,71,0.00,CLR,,0.00,WeatherDisplay:10.37,2013-03-16 08:45:00,
2013-03-16 04:50:00,55.4,46.2,29.97,WSW,240,11.5,11.5,71,0.00,CLR,,0.00,WeatherDisplay:10.37,2013-03-16 08:50:00,
2013-03-16 04:55:00,55.4,46.2,29.97,WSW,240,11.5,11.5,71,0.00,CLR,,0.00,WeatherDisplay:10.37,2013-03-16 08:55:00,
2013-03-16 05:00:00,55.4,46.2,29.97,WSW,240,11.5,11.5,71,0.00,CLR,,0.00,WeatherDisplay:10.37,2013-03-16 09:00:00,
2013-03-16 05:05:00,55.4,44.2,29.97,WSW,240,12.7,12.7,66,0.00,CLR,,0.00,WeatherDisplay:10.37,2013-03-16 09:05:00,
2013-03-16 05:10:00,55.4,44.2,29.97,WSW,240,12.7,12.7,66,0.00,CLR,,0.00,WeatherDisplay:10.37,2013-03-16 09:10:00,
2013-03-16 05:15:00,55.4,44.2,29.97,WSW,240,12.7,12.7,66,0.00,CLR,,0.00,WeatherDisplay:10.37,2013-03-16 09:15:00,
2013-03-16 05:20:00,55.4,44.2,29.97,WSW,240,12.7,12.7,66,0.00,CLR,,0.00,WeatherDisplay:10.37,2013-03-16 09:20:00,
2013-03-16 05:25:00,55.4,44.2,29.97,WSW,240,12.7,12.7,66,0.00,CLR,,0.00,WeatherDisplay:10.37,2013-03-16 09:25:00,
2013-03-16 05:30:00,55.4,44.2,29.97,WSW,240,12.7,12.7,66,0.00,CLR,,0.00,WeatherDisplay:10.37,2013-03-16 09:30:00,
2013-03-16 05:35:00,55.4,44.2,29.97,WSW,240,12.7,12.7,66,0.00,CLR,,0.00,WeatherDisplay:10.37,2013-03-16 09:35:00,
2013-03-16 05:40:00,55.4,44.2,29.97,WSW,240,12.7,12.7,66,0.00,CLR,,0.00,WeatherDisplay:10.37,2013-03-16 09:40:00,
2013-03-16 05:45:00,55.4,44.2,29.98,WSW,250,12.7,12.7,66,0.00,CLR,,0.00,WeatherDisplay:10.37,2013-03-16 09:45:00,
2013-03-16 05:50:00,55.4,44.2,29.98,WSW,250,12.7,12.7,66,0.00,CLR,,0.00,WeatherDisplay:10.37,2013-03-16 09:50:00,
2013-03-16 05:55:00,55.4,44.2,29.98,WSW,250,12.7,12.7,66,0.00,CLR,,0.00,WeatherDisplay:10.37,2013-03-16 09:55:00,
2013-03-16 06:00:00,55.4,44.2,29.98,WSW,250,12.7,12.7,66,0.00,CLR,,0.00,WeatherDisplay:10.37,2013-03-16 10:00:00,
2013-03-16 06:05:00,55.4,44.2,29.98,WSW,250,20.7,20.7,66,0.00,CLR,,0.00,WeatherDisplay:10.37,2013-03-16 10:05:00,
2013-03-16 06:10:00,55.4,44.2,29.98,WSW,250,20.7,20.7,66,0.00,CLR,,0.00,WeatherDisplay:10.37,2013-03-16 10:10:00,
2013-03-16 06:15:00,55.4,44.2,29.98,WSW,250,20.7,20.7,66,0.00,CLR,,0.00,WeatherDisplay:10.37,2013-03-16 10:15:00,
2013-03-16 06:20:00,55.4,44.2,29.98,WSW,250,20.7,20.7,66,0.00,CLR,,0.00,WeatherDisplay:10.37,2013-03-16 10:20:00,
2013-03-16 06:25:00,55.4,42.6,29.98,WSW,250,13.8,13.8,62,0.00,CLR,,0.00,WeatherDisplay:10.37,2013-03-16 10:25:00,
2013-03-16 06:30:00,55.4,42.6,29.98,WSW,250,13.8,13.8,62,0.00,CLR,,0.00,WeatherDisplay:10.37,2013-03-16 10:30:00,
2013-03-16 06:35:00,55.4,42.6,29.98,WSW,250,13.8,13.8,62,0.00,CLR,,0.00,WeatherDisplay:10.37,2013-03-16 10:35:00,
2013-03-16 06:40:00,55.4,42.6,29.98,WSW,250,13.8,13.8,62,0.00,CLR,,0.00,WeatherDisplay:10.37,2013-03-16 10:40:00,
2013-03-16 06:45:00,55.4,42.6,29.99,WSW,250,18.4,18.4,62,0.00,CLR,,0.00,WeatherDisplay:10.37,2013-03-16 10:45:00,
2013-03-16 06:50:00,55.4,42.6,29.99,WSW,250,18.4,18.4,62,0.00,CLR,,0.00,WeatherDisplay:10.37,2013-03-16 10:50:00,
2013-03-16 06:55:00,55.4,42.6,29.99,WSW,250,18.4,18.4,62,0.00,CLR,,0.00,WeatherDisplay:10.37,2013-03-16 10:55:00,
2013-03-16 07:00:00,55.4,42.6,29.99,WSW,250,18.4,18.4,62,0.00,CLR,,0.00,WeatherDisplay:10.37,2013-03-16 11:00:00,
2013-03-16 07:05:00,55.4,42.6,29.99,WSW,250,18.4,18.4,62,0.00,CLR,,0.00,WeatherDisplay:10.37,2013-03-16 11:05:00,
2013-03-16 07:10:00,55.4,42.6,29.99,WSW,250,18.4,18.4,62,0.00,CLR,,0.00,WeatherDisplay:10.37,2013-03-16 11:10:00,
2013-03-16 07:15:00,55.4,42.6,29.99,WSW,250,12.7,12.7,62,0.00,CLR,,0.00,WeatherDisplay:10.37,2013-03-16 11:15:00,
2013-03-16 07:20:00,55.4,42.6,29.99,WSW,250,12.7,12.7,62,0.00,CLR,,0.00,WeatherDisplay:10.37,2013-03-16 11:20:00,
2013-03-16 07:25:00,55.4,42.6,29.99,WSW,250,12.7,12.7,62,0.00,CLR,,0.00,WeatherDisplay:10.37,2013-03-16 11:25:00,
2013-03-16 07:30:00,55.4,42.6,29.99,WSW,250,12.7,12.7,62,0.00,CLR,,0.00,WeatherDisplay:10.37,2013-03-16 11:30:00,
2013-03-16 07:35:00,55.4,42.6,29.99,WSW,250,10.4,10.4,62,0.00,CLR,,0.00,WeatherDisplay:10.37,2013-03-16 11:35:00,
2013-03-16 07:40:00,55.4,42.6,29.99,WSW,250,10.4,10.4,62,0.00,CLR,,0.00,WeatherDisplay:10.37,2013-03-16 11:40:00,
2013-03-16 07:45:00,55.4,42.6,29.99,WSW,250,10.4,10.4,62,0.00,CLR,,0.00,WeatherDisplay:10.37,2013-03-16 11:45:00,
2013-03-16 07:50:00,55.4,42.6,29.99,WSW,250,10.4,10.4,62,0.00,CLR,,0.00,WeatherDisplay:10.37,2013-03-16 11:50:00,
2013-03-16 07:55:00,55.4,42.6,29.99,WSW,250,24.2,24.2,62,0.00,CLR,,0.00,WeatherDisplay:10.37,2013-03-16 11:55:00,
2013-03-16 08:00:00,55.4,42.6,29.99,WSW,250,24.2,24.2,62,0.00,CLR,,0.00,WeatherDisplay:10.37,2013-03-16 12:00:00,
2013-03-16 08:05:00,55.4,42.6,30.00,WSW,250,18.4,18.4,62,0.00,CLR,,0.00,WeatherDisplay:10.37,2013-03-16 12:05:00,
2013-03-16 08:10:00,55.4,42.6,30.00,WSW,250,18.4,18.4,62,0.00,CLR,,0.00,WeatherDisplay:10.37,2013-03-16 12:10:00,
2013-03-16 08:15:00,55.4,42.6,30.00,WSW,250,18.4,18.4,62,0.00,CLR,,0.00,WeatherDisplay:10.37,2013-03-16 12:15:00,
2013-03-16 08:20:00,55.4,42.6,30.00,WSW,250,18.4,18.4,62,0.00,CLR,,0.00,WeatherDisplay:10.37,2013-03-16 12:20:00,
2013-03-16 08:25:00,55.4,42.6,30.00,WSW,250,12.7,12.7,62,0.00,CLR,,0.00,WeatherDisplay:10.37,2013-03-16 12:25:00,
2013-03-16 08:30:00,55.4,42.6,30.00,WSW,250,12.7,12.7,62,0.00,CLR,,0.00,WeatherDisplay:10.37,2013-03-16 12:30:00,
2013-03-16 08:35:00,55.4,42.6,30.00,WSW,250,12.7,12.7,62,0.00,CLR,,0.00,WeatherDisplay:10.37,2013-03-16 12:35:00,
2013-03-16 08:40:00,55.4,42.6,30.00,WSW,250,12.7,12.7,62,0.00,CLR,,0.00,WeatherDisplay:10.37,2013-03-16 12:40:00,
2013-03-16 08:45:00,55.4,42.6,30.00,WSW,250,12.7,12.7,62,0.00,CLR,,0.00,WeatherDisplay:10.37,2013-03-16 12:45:00,
2013-03-16 08:50:00,55.4,42.6,30.00,WSW,250,12.7,12.7,62,0.00,CLR,,0.00,WeatherDisplay:10.37,2013-03-16 12:50:00,
2013-03-16 08:55:00,57.2,42.5,30.00,WSW,250,19.6,19.6,58,0.00,CLR,,0.00,WeatherDisplay:10.37,2013-03-16 12:55:00,
2013-03-16 09:00:00,57.2,42.5,30.00,WSW,250,19.6,19.6,58,0.00,CLR,,0.00,WeatherDisplay:10.37,2013-03-16 13:00:00,
2013-03-16 09:05:00,57.2,42.5,30.00,WSW,250,19.6,19.6,58,0.00,CLR,,0.00,WeatherDisplay:10.37,2013-03-16 13:05:00,
2013-03-16 09:10:00,57.2,42.5,30.00,WSW,250,19.6,19.6,58,0.00,CLR,,0.00,WeatherDisplay:10.37,2013-03-16 13:10:00,
2013-03-16 09:15:00,59.0,42.4,29.99,WSW,250,25.3,25.3,54,0.00,CLR,,0.00,WeatherDisplay:10.37,2013-03-16 13:15:00,
2013-03-16 09:20:00,59.0,42.4,29.99,WSW,250,25.3,25.3,54,0.00,CLR,,0.00,WeatherDisplay:10.37,2013-03-16 13:20:00,
2013-03-16 09:25:00,59.0,42.4,29.99,WSW,250,25.3,25.3,54,0.00,CLR,,0.00,WeatherDisplay:10.37,2013-03-16 13:25:00,
2013-03-16 09:30:00,59.0,42.4,29.99,WSW,250,25.3,25.3,54,0.00,CLR,,0.00,WeatherDisplay:10.37,2013-03-16 13:30:00,
2013-03-16 09:35:00,60.8,44.5,29.99,West,260,18.4,18.4,55,0.00,CLR,,0.00,WeatherDisplay:10.37,2013-03-16 13:35:00,
2013-03-16 09:40:00,60.8,44.5,29.99,West,260,18.4,18.4,55,0.00,CLR,,0.00,WeatherDisplay:10.37,2013-03-16 13:40:00,
2013-03-16 09:45:00,60.8,44.5,29.99,West,260,18.4,18.4,55,0.00,CLR,,0.00,WeatherDisplay:10.37,2013-03-16 13:45:00,
2013-03-16 09:50:00,60.8,44.5,29.99,West,260,18.4,18.4,55,0.00,CLR,,0.00,WeatherDisplay:10.37,2013-03-16 13:50:00,
2013-03-16 09:55:00,62.6,44.2,29.99,West,260,23.0,23.0,51,0.00,CLR,,0.00,WeatherDisplay:10.37,2013-03-16 13:55:00,
2013-03-16 10:00:00,62.6,44.2,29.99,West,260,23.0,23.0,51,0.00,CLR,,0.00,WeatherDisplay:10.37,2013-03-16 14:00:00,
2013-03-16 10:05:00,62.6,44.2,29.99,West,260,23.0,23.0,51,0.00,CLR,,0.00,WeatherDisplay:10.37,2013-03-16 14:05:00,
2013-03-16 10:10:00,62.6,44.2,29.99,West,260,23.0,23.0,51,0.00,CLR,,0.00,WeatherDisplay:10.37,2013-03-16 14:10:00,
2013-03-16 10:15:00,62.6,44.2,30.00,West,260,23.0,23.0,51,0.00,CLR,,0.00,WeatherDisplay:10.37,2013-03-16 14:15:00,
2013-03-16 10:20:00,62.6,44.2,30.00,West,260,23.0,23.0,51,0.00,CLR,,0.00,WeatherDisplay:10.37,2013-03-16 14:20:00,
2013-03-16 10:25:00,62.6,44.2,30.00,West,260,23.0,23.0,51,0.00,CLR,,0.00,WeatherDisplay:10.37,2013-03-16 14:25:00,
2013-03-16 10:30:00,62.6,44.2,30.00,West,260,23.0,23.0,51,0.00,CLR,,0.00,WeatherDisplay:10.37,2013-03-16 14:30:00,
2013-03-16 10:35:00,64.4,44.3,29.99,WSW,250,20.7,20.7,48,0.00,CLR,,0.00,WeatherDisplay:10.37,2013-03-16 14:35:00,
2013-03-16 10:40:00,64.4,44.3,29.99,WSW,250,20.7,20.7,48,0.00,CLR,,0.00,WeatherDisplay:10.37,2013-03-16 14:40:00,
2013-03-16 10:46:00,64.4,44.3,29.99,WSW,250,20.7,20.7,48,0.00,CLR,,0.00,WeatherDisplay:10.37,2013-03-16 14:46:00,
2013-03-16 10:51:00,64.4,44.3,29.99,WSW,250,20.7,20.7,48,0.00,CLR,,0.00,WeatherDisplay:10.37,2013-03-16 14:51:00,
2013-03-16 10:56:00,68.0,44.0,29.98,West,260,25.3,25.3,42,0.00,CLR,,0.00,WeatherDisplay:10.37,2013-03-16 14:56:00,
2013-03-16 11:01:00,68.0,44.0,29.98,West,260,25.3,25.3,42,0.00,CLR,,0.00,WeatherDisplay:10.37,2013-03-16 15:01:00,
2013-03-16 11:06:00,68.0,44.0,29.98,West,260,25.3,25.3,42,0.00,CLR,,0.00,WeatherDisplay:10.37,2013-03-16 15:06:00,
2013-03-16 11:11:00,68.0,44.0,29.98,West,260,25.3,25.3,42,0.00,CLR,,0.00,WeatherDisplay:10.37,2013-03-16 15:11:00,
2013-03-16 11:16:00,68.0,44.0,29.98,West,260,28.8,28.8,42,0.00,CLR,,0.00,WeatherDisplay:10.37,2013-03-16 15:16:00,
2013-03-16 11:21:00,68.0,44.0,29.98,West,260,28.8,28.8,42,0.00,CLR,,0.00,WeatherDisplay:10.37,2013-03-16 15:21:00,
2013-03-16 11:26:00,68.0,44.0,29.98,West,260,28.8,28.8,42,0.00,CLR,,0.00,WeatherDisplay:10.37,2013-03-16 15:26:00,
2013-03-16 11:31:00,68.0,44.0,29.98,West,260,28.8,28.8,42,0.00,CLR,,0.00,WeatherDisplay:10.37,2013-03-16 15:31:00,
2013-03-16 11:36:00,69.8,44.4,29.98,WSW,250,24.2,24.2,40,0.00,CLR,,0.00,WeatherDisplay:10.37,2013-03-16 15:36:00,
2013-03-16 11:41:00,69.8,44.4,29.98,WSW,250,24.2,24.2,40,0.00,CLR,,0.00,WeatherDisplay:10.37,2013-03-16 15:41:00,
2013-03-16 11:46:00,69.8,44.4,29.97,WSW,250,28.8,28.8,40,0.00,CLR,,0.00,WeatherDisplay:10.37,2013-03-16 15:46:00,
2013-03-16 11:51:00,69.8,44.4,29.97,WSW,250,28.8,28.8,40,0.00,CLR,,0.00,WeatherDisplay:10.37,2013-03-16 15:51:00,
2013-03-16 11:56:00,69.8,44.4,29.97,WSW,250,28.8,28.8,40,0.00,CLR,,0.00,WeatherDisplay:10.37,2013-03-16 15:56:00,
2013-03-16 12:01:00,69.8,44.4,29.97,WSW,250,28.8,28.8,40,0.00,CLR,,0.00,WeatherDisplay:10.37,2013-03-16 16:01:00,
2013-03-16 12:06:00,71.6,43.9,29.96,West,260,26.5,26.5,37,0.00,CLR,,0.00,WeatherDisplay:10.37,2013-03-16 16:06:00,
2013-03-16 12:11:00,71.6,43.9,29.96,West,260,26.5,26.5,37,0.00,CLR,,0.00,WeatherDisplay:10.37,2013-03-16 16:11:00,
2013-03-16 12:16:00,71.6,43.9,29.96,West,260,26.5,26.5,37,0.00,CLR,,0.00,WeatherDisplay:10.37,2013-03-16 16:16:00,
2013-03-16 12:21:00,71.6,43.9,29.96,West,260,26.5,26.5,37,0.00,CLR,,0.00,WeatherDisplay:10.37,2013-03-16 16:21:00,
2013-03-16 12:26:00,71.6,43.9,29.95,WSW,250,28.8,28.8,37,0.00,CLR,,0.00,WeatherDisplay:10.37,2013-03-16 16:26:00,
2013-03-16 12:31:00,71.6,43.9,29.95,WSW,250,28.8,28.8,37,0.00,CLR,,0.00,WeatherDisplay:10.37,2013-03-16 16:31:00,
2013-03-16 12:36:00,71.6,43.9,29.95,WSW,250,28.8,28.8,37,0.00,CLR,,0.00,WeatherDisplay:10.37,2013-03-16 16:36:00,
2013-03-16 12:41:00,71.6,43.9,29.95,WSW,250,28.8,28.8,37,0.00,CLR,,0.00,WeatherDisplay:10.37,2013-03-16 16:41:00,
2013-03-16 12:46:00,73.4,44.1,29.95,West,260,27.6,27.6,35,0.00,CLR,,0.00,WeatherDisplay:10.37,2013-03-16 16:46:00,
2013-03-16 12:51:00,73.4,44.1,29.95,West,260,27.6,27.6,35,0.00,CLR,,0.00,WeatherDisplay:10.37,2013-03-16 16:51:00,
2013-03-16 12:57:00,73.4,44.1,29.95,West,260,27.6,27.6,35,0.00,CLR,,0.00,WeatherDisplay:10.37,2013-03-16 16:57:00,
2013-03-16 13:02:00,73.4,44.1,29.94,West,270,27.6,27.6,35,0.00,CLR,,0.00,WeatherDisplay:10.37,2013-03-16 17:02:00,
2013-03-16 13:07:00,73.4,44.1,29.94,West,270,27.6,27.6,35,0.00,CLR,,0.00,WeatherDisplay:10.37,2013-03-16 17:07:00,
2013-03-16 13:12:00,73.4,44.1,29.94,West,270,27.6,27.6,35,0.00,CLR,,0.00,WeatherDisplay:10.37,2013-03-16 17:12:00,
2013-03-16 13:17:00,73.4,44.1,29.94,West,270,27.6,27.6,35,0.00,CLR,,0.00,WeatherDisplay:10.37,2013-03-16 17:17:00,
2013-03-16 13:22:00,75.2,45.7,29.93,WSW,250,28.8,28.8,35,0.00,CLR,,0.00,WeatherDisplay:10.37,2013-03-16 17:22:00,
2013-03-16 13:27:00,75.2,45.7,29.93,WSW,250,28.8,28.8,35,0.00,CLR,,0.00,WeatherDisplay:10.37,2013-03-16 17:27:00,
2013-03-16 13:32:00,75.2,45.7,29.93,WSW,250,28.8,28.8,35,0.00,CLR,,0.00,WeatherDisplay:10.37,2013-03-16 17:32:00,
2013-03-16 13:37:00,75.2,45.7,29.93,WSW,250,28.8,28.8,35,0.00,CLR,,0.00,WeatherDisplay:10.37,2013-03-16 17:37:00,
2013-03-16 13:43:00,77.0,45.7,29.92,West,270,28.8,28.8,33,0.00,CLR,,0.00,WeatherDisplay:10.37,2013-03-16 17:43:00,
2013-03-16 13:48:00,77.0,45.7,29.92,West,270,27.6,27.6,33,0.00,CLR,,0.00,WeatherDisplay:10.37,2013-03-16 17:48:00,
2013-03-16 13:53:00,77.0,45.7,29.92,West,270,27.6,27.6,33,0.00,CLR,,0.00,WeatherDisplay:10.37,2013-03-16 17:53:00,
2013-03-16 13:58:00,77.0,45.7,29.92,West,270,27.6,27.6,33,0.00,CLR,,0.00,WeatherDisplay:10.37,2013-03-16 17:58:00,
2013-03-16 14:03:00,77.0,45.7,29.90,WSW,240,27.6,27.6,33,0.00,CLR,,0.00,WeatherDisplay:10.37,2013-03-16 18:03:00,
2013-03-16 14:08:00,77.0,45.7,29.90,WSW,240,24.2,24.2,33,0.00,CLR,,0.00,WeatherDisplay:10.37,2013-03-16 18:08:00,
2013-03-16 14:13:00,77.0,45.7,29.90,WSW,240,24.2,24.2,33,0.00,CLR,,0.00,WeatherDisplay:10.37,2013-03-16 18:13:00,
2013-03-16 14:18:00,77.0,45.7,29.90,WSW,240,24.2,24.2,33,0.00,CLR,,0.00,WeatherDisplay:10.37,2013-03-16 18:18:00,
2013-03-16 14:23:00,78.8,45.6,29.90,WSW,240,29.9,29.9,31,0.00,CLR,,0.00,WeatherDisplay:10.37,2013-03-16 18:23:00,
2013-03-16 14:28:00,78.8,45.6,29.90,WSW,240,29.9,29.9,31,0.00,CLR,,0.00,WeatherDisplay:10.37,2013-03-16 18:28:00,
2013-03-16 14:33:00,78.8,45.6,29.90,WSW,240,29.9,29.9,31,0.00,CLR,,0.00,WeatherDisplay:10.37,2013-03-16 18:33:00,
2013-03-16 14:38:00,78.8,45.6,29.90,WSW,240,29.9,29.9,31,0.00,CLR,,0.00,WeatherDisplay:10.37,2013-03-16 18:38:00,
2013-03-16 14:43:00,78.8,45.6,29.89,SW,230,29.9,29.9,31,0.00,CLR,,0.00,WeatherDisplay:10.37,2013-03-16 18:43:00,
2013-03-16 14:48:00,78.8,45.6,29.89,SW,230,28.8,28.8,31,0.00,CLR,,0.00,WeatherDisplay:10.37,2013-03-16 18:48:00,
2013-03-16 14:53:00,78.8,45.6,29.89,SW,230,28.8,28.8,31,0.00,CLR,,0.00,WeatherDisplay:10.37,2013-03-16 18:53:00,
2013-03-16 14:58:00,78.8,45.6,29.89,SW,230,28.8,28.8,31,0.00,CLR,,0.00,WeatherDisplay:10.37,2013-03-16 18:58:00,
2013-03-16 15:03:00,78.8,45.6,29.87,SW,220,28.8,28.8,31,0.00,CLR,,0.00,WeatherDisplay:10.37,2013-03-16 19:03:00,
2013-03-16 15:08:00,78.8,45.6,29.87,SW,220,20.7,20.7,31,0.00,CLR,,0.00,WeatherDisplay:10.37,2013-03-16 19:08:00,
2013-03-16 15:13:00,78.8,45.6,29.87,SW,220,20.7,20.7,31,0.00,CLR,,0.00,WeatherDisplay:10.37,2013-03-16 19:13:00,
2013-03-16 15:18:00,78.8,45.6,29.87,SW,220,20.7,20.7,31,0.00,CLR,,0.00,WeatherDisplay:10.37,2013-03-16 19:18:00,
2013-03-16 15:23:00,78.8,45.6,29.87,SW,220,20.7,20.7,31,0.00,CLR,,0.00,WeatherDisplay:10.37,2013-03-16 19:23:00,
2013-03-16 15:28:00,78.8,45.6,29.87,SW,220,20.7,20.7,31,0.00,CLR,,0.00,WeatherDisplay:10.37,2013-03-16 19:28:00,
2013-03-16 15:33:00,78.8,45.6,29.86,WSW,250,28.8,28.8,31,0.00,CLR,,0.00,WeatherDisplay:10.37,2013-03-16 19:33:00,
2013-03-16 15:38:00,78.8,45.6,29.86,WSW,250,28.8,28.8,31,0.00,CLR,,0.00,WeatherDisplay:10.37,2013-03-16 19:38:00,
2013-03-16 15:43:00,78.8,45.6,29.86,WSW,250,28.8,28.8,31,0.00,CLR,,0.00,WeatherDisplay:10.37,2013-03-16 19:43:00,
2013-03-16 15:48:00,78.8,45.6,29.86,WSW,250,28.8,28.8,31,0.00,CLR,,0.00,WeatherDisplay:10.37,2013-03-16 19:48:00,
2013-03-16 15:53:00,78.8,43.8,29.86,WSW,250,32.2,32.2,29,0.00,CLR,,0.00,WeatherDisplay:10.37,2013-03-16 19:53:00,
2013-03-16 15:58:00,78.8,43.8,29.86,WSW,250,32.2,32.2,29,0.00,CLR,,0.00,WeatherDisplay:10.37,2013-03-16 19:58:00,
2013-03-16 16:03:00,78.8,43.8,29.85,WSW,250,35.7,35.7,29,0.00,CLR,,0.00,WeatherDisplay:10.37,2013-03-16 20:03:00,
2013-03-16 16:08:00,78.8,43.8,29.85,WSW,250,35.7,35.7,29,0.00,CLR,,0.00,WeatherDisplay:10.37,2013-03-16 20:08:00,
2013-03-16 16:13:00,78.8,43.8,29.85,WSW,250,35.7,35.7,29,0.00,CLR,,0.00,WeatherDisplay:10.37,2013-03-16 20:13:00,
2013-03-16 16:18:00,78.8,43.8,29.85,WSW,250,35.7,35.7,29,0.00,CLR,,0.00,WeatherDisplay:10.37,2013-03-16 20:18:00,
2013-03-16 16:23:00,77.0,51.5,29.85,South,180,35.7,35.7,41,0.00,CLR,,0.00,WeatherDisplay:10.37,2013-03-16 20:23:00,
2013-03-16 16:28:00,77.0,51.5,29.85,South,180,20.7,20.7,41,0.00,CLR,,0.00,WeatherDisplay:10.37,2013-03-16 20:28:00,
2013-03-16 16:34:00,77.0,51.5,29.85,South,180,20.7,20.7,41,0.00,CLR,,0.00,WeatherDisplay:10.37,2013-03-16 20:34:00,
2013-03-16 16:39:00,77.0,51.5,29.85,South,180,20.7,20.7,41,0.00,CLR,,0.00,WeatherDisplay:10.37,2013-03-16 20:39:00,
2013-03-16 16:44:00,75.2,51.2,29.85,South,190,16.1,16.1,43,0.00,CLR,,0.00,WeatherDisplay:10.37,2013-03-16 20:44:00,
2013-03-16 16:49:00,75.2,51.2,29.85,South,190,16.1,16.1,43,0.00,CLR,,0.00,WeatherDisplay:10.37,2013-03-16 20:49:00,
2013-03-16 16:54:00,75.2,51.2,29.85,South,190,16.1,16.1,43,0.00,CLR,,0.00,WeatherDisplay:10.37,2013-03-16 20:54:00,
2013-03-16 16:59:00,75.2,51.2,29.85,South,190,16.1,16.1,43,0.00,CLR,,0.00,WeatherDisplay:10.37,2013-03-16 20:59:00,
2013-03-16 17:04:00,75.2,49.9,29.85,South,180,23.0,23.0,41,0.00,CLR,,0.00,WeatherDisplay:10.37,2013-03-16 21:04:00,
2013-03-16 17:09:00,75.2,49.9,29.85,South,180,23.0,23.0,41,0.00,CLR,,0.00,WeatherDisplay:10.37,2013-03-16 21:09:00,
2013-03-16 17:14:00,75.2,49.9,29.85,South,180,23.0,23.0,41,0.00,CLR,,0.00,WeatherDisplay:10.37,2013-03-16 21:14:00,
2013-03-16 17:19:00,75.2,49.9,29.85,South,180,23.0,23.0,41,0.00,CLR,,0.00,WeatherDisplay:10.37,2013-03-16 21:19:00,
2013-03-16 17:24:00,73.4,51.4,29.85,SSW,200,20.7,20.7,46,0.00,CLR,,0.00,WeatherDisplay:10.37,2013-03-16 21:24:00,
2013-03-16 17:29:00,73.4,51.4,29.85,SSW,200,20.7,20.7,46,0.00,CLR,,0.00,WeatherDisplay:10.37,2013-03-16 21:29:00,
2013-03-16 17:34:00,73.4,51.4,29.85,SSW,200,20.7,20.7,46,0.00,CLR,,0.00,WeatherDisplay:10.37,2013-03-16 21:34:00,
2013-03-16 17:39:00,73.4,51.4,29.85,SSW,200,20.7,20.7,46,0.00,CLR,,0.00,WeatherDisplay:10.37,2013-03-16 21:39:00,
2013-03-16 17:44:00,73.4,51.4,29.85,SSW,210,25.3,25.3,46,0.00,CLR,,0.00,WeatherDisplay:10.37,2013-03-16 21:44:00,
2013-03-16 17:49:00,73.4,51.4,29.85,SSW,210,25.3,25.3,46,0.00,CLR,,0.00,WeatherDisplay:10.37,2013-03-16 21:49:00,
2013-03-16 17:54:00,73.4,51.4,29.85,SSW,210,25.3,25.3,46,0.00,CLR,,0.00,WeatherDisplay:10.37,2013-03-16 21:54:00,
2013-03-16 17:59:00,73.4,51.4,29.85,SSW,210,25.3,25.3,46,0.00,CLR,,0.00,WeatherDisplay:10.37,2013-03-16 21:59:00,
2013-03-16 18:04:00,73.4,51.4,29.85,SSW,210,25.3,25.3,46,0.00,CLR,,0.00,WeatherDisplay:10.37,2013-03-16 22:04:00,
2013-03-16 18:09:00,73.4,51.4,29.85,SSW,210,25.3,25.3,46,0.00,CLR,,0.00,WeatherDisplay:10.37,2013-03-16 22:09:00,
2013-03-16 18:14:00,71.6,51.4,29.85,South,190,25.3,25.3,49,0.00,CLR,,0.00,WeatherDisplay:10.37,2013-03-16 22:14:00,
2013-03-16 18:19:00,71.6,51.4,29.85,South,190,25.3,25.3,49,0.00,CLR,,0.00,WeatherDisplay:10.37,2013-03-16 22:19:00,
2013-03-16 18:24:00,71.6,51.4,29.85,South,190,25.3,25.3,49,0.00,CLR,,0.00,WeatherDisplay:10.37,2013-03-16 22:24:00,
2013-03-16 18:29:00,71.6,51.4,29.85,South,190,25.3,25.3,49,0.00,CLR,,0.00,WeatherDisplay:10.37,2013-03-16 22:29:00,
2013-03-16 18:34:00,71.6,51.4,29.85,SSW,200,15.0,15.0,49,0.00,CLR,,0.00,WeatherDisplay:10.37,2013-03-16 22:34:00,
2013-03-16 18:39:00,71.6,51.4,29.85,SSW,200,15.0,15.0,49,0.00,CLR,,0.00,WeatherDisplay:10.37,2013-03-16 22:39:00,
2013-03-16 18:44:00,69.8,51.4,29.86,SSW,200,20.7,20.7,52,0.00,CLR,,0.00,WeatherDisplay:10.37,2013-03-16 22:44:00,
2013-03-16 18:49:00,69.8,51.4,29.86,SSW,200,20.7,20.7,52,0.00,CLR,,0.00,WeatherDisplay:10.37,2013-03-16 22:49:00,
2013-03-16 18:54:00,69.8,51.4,29.86,SSW,200,20.7,20.7,52,0.00,CLR,,0.00,WeatherDisplay:10.37,2013-03-16 22:54:00,
2013-03-16 18:59:00,69.8,51.4,29.86,SSW,200,20.7,20.7,52,0.00,CLR,,0.00,WeatherDisplay:10.37,2013-03-16 22:59:00,
2013-03-16 19:04:00,69.8,51.4,29.86,SSW,210,20.7,20.7,52,0.00,CLR,,0.00,WeatherDisplay:10.37,2013-03-16 23:04:00,
2013-03-16 19:09:00,69.8,51.4,29.86,SSW,210,20.7,20.7,52,0.00,CLR,,0.00,WeatherDisplay:10.37,2013-03-16 23:09:00,
2013-03-16 19:14:00,69.8,51.4,29.86,SSW,210,20.7,20.7,52,0.00,CLR,,0.00,WeatherDisplay:10.37,2013-03-16 23:14:00,
2013-03-16 19:19:00,69.8,51.4,29.86,SSW,210,20.7,20.7,52,0.00,CLR,,0.00,WeatherDisplay:10.37,2013-03-16 23:19:00,
2013-03-16 19:24:00,68.0,51.7,29.86,SSW,200,19.6,19.6,56,0.00,CLR,,0.00,WeatherDisplay:10.37,2013-03-16 23:24:00,
2013-03-16 19:29:00,68.0,51.7,29.86,SSW,200,19.6,19.6,56,0.00,CLR,,0.00,WeatherDisplay:10.37,2013-03-16 23:29:00,
2013-03-16 19:34:00,68.0,51.7,29.86,SSW,200,19.6,19.6,56,0.00,CLR,,0.00,WeatherDisplay:10.37,2013-03-16 23:34:00,
2013-03-16 19:39:00,68.0,51.7,29.86,SSW,200,19.6,19.6,56,0.00,CLR,,0.00,WeatherDisplay:10.37,2013-03-16 23:39:00,
2013-03-16 19:44:00,64.4,51.5,29.86,SSW,200,19.6,19.6,63,0.00,CLR,,0.00,WeatherDisplay:10.37,2013-03-16 23:44:00,
2013-03-16 19:49:00,64.4,51.5,29.86,SSW,200,19.6,19.6,63,0.00,CLR,,0.00,WeatherDisplay:10.37,2013-03-16 23:49:00,
2013-03-16 19:54:00,64.4,51.5,29.86,SSW,200,19.6,19.6,63,0.00,CLR,,0.00,WeatherDisplay:10.37,2013-03-16 23:54:00,
2013-03-16 19:59:00,64.4,51.5,29.86,SSW,200,19.6,19.6,63,0.00,CLR,,0.00,WeatherDisplay:10.37,2013-03-16 23:59:00,
2013-03-16 20:04:00,62.6,51.5,29.87,SSW,210,19.6,19.6,67,0.00,CLR,,0.00,WeatherDisplay:10.37,2013-03-17 00:04:00,
2013-03-16 20:09:00,62.6,51.5,29.87,SSW,210,19.6,19.6,67,0.00,CLR,,0.00,WeatherDisplay:10.37,2013-03-17 00:09:00,
2013-03-16 20:14:00,62.6,51.5,29.87,SSW,210,19.6,19.6,67,0.00,CLR,,0.00,WeatherDisplay:10.37,2013-03-17 00:14:00,
2013-03-16 20:19:00,62.6,51.5,29.87,SSW,210,19.6,19.6,67,0.00,CLR,,0.00,WeatherDisplay:10.37,2013-03-17 00:19:00,
2013-03-16 20:24:00,62.6,51.5,29.88,SW,220,10.4,10.4,67,0.00,CLR,,0.00,WeatherDisplay:10.37,2013-03-17 00:24:00,
2013-03-16 20:29:00,62.6,51.5,29.88,SW,220,10.4,10.4,67,0.00,CLR,,0.00,WeatherDisplay:10.37,2013-03-17 00:29:00,
2013-03-16 20:34:00,62.6,51.5,29.88,SW,220,10.4,10.4,67,0.00,CLR,,0.00,WeatherDisplay:10.37,2013-03-17 00:34:00,
2013-03-16 20:39:00,62.6,51.5,29.88,SW,220,10.4,10.4,67,0.00,CLR,,0.00,WeatherDisplay:10.37,2013-03-17 00:39:00,
2013-03-16 20:44:00,62.6,51.5,29.89,SW,220,12.7,12.7,67,0.00,CLR,,0.00,WeatherDisplay:10.37,2013-03-17 00:44:00,
2013-03-16 20:49:00,62.6,51.5,29.89,SW,220,12.7,12.7,67,0.00,CLR,,0.00,WeatherDisplay:10.37,2013-03-17 00:49:00,
2013-03-16 20:54:00,62.6,51.5,29.89,SW,220,12.7,12.7,67,0.00,CLR,,0.00,WeatherDisplay:10.37,2013-03-17 00:54:00,
2013-03-16 20:59:00,62.6,51.5,29.89,SW,220,12.7,12.7,67,0.00,CLR,,0.00,WeatherDisplay:10.37,2013-03-17 00:59:00,
2013-03-16 21:04:00,60.8,51.7,29.90,SW,220,10.4,10.4,72,0.00,CLR,,0.00,WeatherDisplay:10.37,2013-03-17 01:04:00,
2013-03-16 21:09:00,60.8,51.7,29.90,SW,220,10.4,10.4,72,0.00,CLR,,0.00,WeatherDisplay:10.37,2013-03-17 01:09:00,
2013-03-16 21:14:00,60.8,51.7,29.90,SW,220,10.4,10.4,72,0.00,CLR,,0.00,WeatherDisplay:10.37,2013-03-17 01:14:00,
2013-03-16 21:19:00,60.8,51.7,29.90,SW,220,10.4,10.4,72,0.00,CLR,,0.00,WeatherDisplay:10.37,2013-03-17 01:19:00,
2013-03-16 21:24:00,60.8,49.8,29.90,SW,220,10.4,10.4,67,0.00,CLR,,0.00,WeatherDisplay:10.37,2013-03-17 01:24:00,
2013-03-16 21:29:00,60.8,49.8,29.90,SW,220,10.4,10.4,67,0.00,CLR,,0.00,WeatherDisplay:10.37,2013-03-17 01:29:00,
2013-03-16 21:34:00,60.8,49.8,29.90,SW,220,10.4,10.4,67,0.00,CLR,,0.00,WeatherDisplay:10.37,2013-03-17 01:34:00,
2013-03-16 21:39:00,60.8,49.8,29.90,SW,220,10.4,10.4,67,0.00,CLR,,0.00,WeatherDisplay:10.37,2013-03-17 01:39:00,
2013-03-16 21:44:00,60.8,49.8,29.91,SW,220,10.4,10.4,67,0.00,CLR,,0.00,WeatherDisplay:10.37,2013-03-17 01:44:00,
2013-03-16 21:49:00,60.8,49.8,29.91,SW,220,10.4,10.4,67,0.00,CLR,,0.00,WeatherDisplay:10.37,2013-03-17 01:49:00,
2013-03-16 21:54:00,60.8,49.8,29.91,SW,220,10.4,10.4,67,0.00,CLR,,0.00,WeatherDisplay:10.37,2013-03-17 01:54:00,
2013-03-16 21:59:00,60.8,49.8,29.91,SW,220,10.4,10.4,67,0.00,CLR,,0.00,WeatherDisplay:10.37,2013-03-17 01:59:00,
2013-03-16 22:04:00,60.8,49.8,29.91,SW,220,10.4,10.4,67,0.00,CLR,,0.00,WeatherDisplay:10.37,2013-03-17 02:04:00,
2013-03-16 22:09:00,60.8,49.8,29.91,SW,220,10.4,10.4,67,0.00,CLR,,0.00,WeatherDisplay:10.37,2013-03-17 02:09:00,
2013-03-16 22:14:00,60.8,49.8,29.92,SW,220,12.7,12.7,67,0.00,CLR,,0.00,WeatherDisplay:10.37,2013-03-17 02:14:00,
2013-03-16 22:19:00,60.8,49.8,29.92,SW,220,12.7,12.7,67,0.00,CLR,,0.00,WeatherDisplay:10.37,2013-03-17 02:19:00,
2013-03-16 22:24:00,60.8,49.8,29.92,SW,220,12.7,12.7,67,0.00,CLR,,0.00,WeatherDisplay:10.37,2013-03-17 02:24:00,
2013-03-16 22:29:00,60.8,49.8,29.92,SW,220,12.7,12.7,67,0.00,CLR,,0.00,WeatherDisplay:10.37,2013-03-17 02:29:00,
2013-03-16 22:34:00,60.8,49.8,29.93,SW,220,15.0,15.0,67,0.00,CLR,,0.00,WeatherDisplay:10.37,2013-03-17 02:34:00,
2013-03-16 22:39:00,60.8,49.8,29.93,SW,220,15.0,15.0,67,0.00,CLR,,0.00,WeatherDisplay:10.37,2013-03-17 02:39:00,
2013-03-16 22:44:00,60.8,49.8,29.93,SW,220,15.0,15.0,67,0.00,CLR,,0.00,WeatherDisplay:10.37,2013-03-17 02:44:00,
2013-03-16 22:49:00,60.8,49.8,29.93,SW,220,15.0,15.0,67,0.00,CLR,,0.00,WeatherDisplay:10.37,2013-03-17 02:49:00,
2013-03-16 22:54:00,59.0,50.0,29.93,SW,220,10.4,10.4,72,0.00,CLR,,0.00,WeatherDisplay:10.37,2013-03-17 02:54:00,
2013-03-16 22:59:00,59.0,50.0,29.93,SW,220,10.4,10.4,72,0.00,CLR,,0.00,WeatherDisplay:10.37,2013-03-17 02:59:00,
2013-03-16 23:04:00,59.0,50.0,29.93,SW,220,10.4,10.4,72,0.00,CLR,,0.00,WeatherDisplay:10.37,2013-03-17 03:04:00,
2013-03-16 23:09:00,59.0,50.0,29.93,SW,220,10.4,10.4,72,0.00,CLR,,0.00,WeatherDisplay:10.37,2013-03-17 03:09:00,
2013-03-16 23:14:00,59.0,50.0,29.94,SW,220,8.1,8.1,72,0.00,CLR,,0.00,WeatherDisplay:10.37,2013-03-17 03:14:00,
2013-03-16 23:19:00,59.0,50.0,29.94,SW,220,8.1,8.1,72,0.00,CLR,,0.00,WeatherDisplay:10.37,2013-03-17 03:19:00,
2013-03-16 23:24:00,59.0,50.0,29.94,SW,220,8.1,8.1,72,0.00,CLR,,0.00,WeatherDisplay:10.37,2013-03-17 03:24:00,
2013-03-16 23:29:00,59.0,50.0,29.94,SW,220,8.1,8.1,72,0.00,CLR,,0.00,WeatherDisplay:10.37,2013-03-17 03:29:00,
2013-03-16 23:34:00,59.0,50.0,29.94,SW,230,6.9,6.9,72,0.00,CLR,,0.00,WeatherDisplay:10.37,2013-03-17 03:34:00,
2013-03-16 23:39:00,59.0,50.0,29.94,SW,230,6.9,6.9,72,0.00,CLR,,0.00,WeatherDisplay:10.37,2013-03-17 03:39:00,
2013-03-16 23:44:00,59.0,50.0,29.94,SW,230,6.9,6.9,72,0.00,CLR,,0.00,WeatherDisplay:10.37,2013-03-17 03:44:00,
2013-03-16 23:49:00,59.0,50.0,29.94,SW,230,6.9,6.9,72,0.00,CLR,,0.00,WeatherDisplay:10.37,2013-03-17 03:49:00,
2013-03-16 23:54:00,59.0,48.1,29.94,SW,220,9.2,9.2,67,0.00,CLR,,0.00,WeatherDisplay:10.37,2013-03-17 03:54:00,
2013-03-16 23:59:00,59.0,48.1,29.94,SW,220,9.2,9.2,67,0.00,CLR,,0.00,WeatherDisplay:10.37,2013-03-17 03:59:00,